Other Public Products
Issued by NWS Charleston, SC

Current Version | Previous Version | Text Only | Print | Product List | Glossary Off
Versions: 1 2 3 4 5 6 7 8 9 10 11 12 13 14 15 16 17 18 19 20 21 22 23 24 25 26 27 28 29 30 31 32 33 34 35 36 37 38 39 40 41 42 43 44 45 46 47 48 49 50

435
FPUS82 KCHS 170227
OPUCHS

TEST...KCHS/KSAV Gateway Observations...TEST
National Weather Service Charleston SC
1000 PM EDT MON OCT 16 2017

NOTE: "fair" indicates few or no clouds below 12,000 feet with no
significant weather and/or obstructions to visibility.

SCZ050-WAZ558-NCZ071-TXZ119-213-PAZ071-DCZ001-FLZ074-172-MI076-
NYZ176-178-MAZ016-IL014-TNZ027-NJZ106-GAZ044-MD014-170300-

...Gateway Observations for Charleston International...

CITY           SKY/WX    TMP DP  RH WIND       PRES   REMARKS
Chas Airport   MOCLDY    62  56  80 N14G23    30.12R
Seattle        MOCLDY    57  47  69 SW6       30.13S
Charlotte      PTCLDY    55  41  59 N10       30.24R
Dallas DFW     CLEAR     62  41  46 N7        30.27R
Dallas Love    CLEAR     62  43  49 NE7       30.28R
Philladelphia  CLEAR     52  34  50 N9        30.21R
Wash National  CLEAR     57  37  47 NW14      30.23R
Baltimore      CLEAR     51  38  60 NW5       30.21R
Miami          MOCLDY    82  76  81 E7        29.96R
Detroit        PTCLDY    47  41  80 S3        30.26F
Newark         PTCLDY    51  34  52 N10G21    30.20R
Laguardia      PTCLDY    52  35  52 N17       30.19R
J F K          PTCLDY    51  33  50 N15       30.19R
Boston Logan   CLOUDY    48  35  60 NW15G24   30.13R
Ft. Lauderdale PTCLDY    81  75  82 E9        29.96R
Chicago O`Hare CLEAR     54  37  52 SW6       30.21S
Chicago Midway CLEAR     55  38  52 S7        30.22S
Houston Bush   PTCLDY    64  50  60 N3        30.23R
Houston Hobby  CLEAR     70  47  43 N9        30.22R
Nashville      CLEAR     54  42  64 N7        30.30S
Atlanta        MOCLDY    58  44  60 N12       30.19R

$$

GAZ044-118-TXZ119-213-NCZ071-DCZ001-MDZ014-506-PAZ021-071-NJZ106-
NYZ176-178-MAZ106-OHZ011-021-055-MIZ076-KYZ091-ILZ014-INZ047-
MNZ060-ONZ431-170300-

...Gateway Observations for Savannah International...

CITY           SKY/WX    TMP DP  RH WIND       PRES   REMARKS
Savannah Arpt  CLOUDY    66  57  72 N14G21    30.11R
Atlanta        MOCLDY    58  44  60 N12       30.19R
Charlotte      PTCLDY    55  41  59 N10       30.24R
Dallas DFW     CLEAR     62  41  46 N7        30.27R
Houston Bush   PTCLDY    64  50  60 N3        30.23R
Wash National  CLEAR     57  37  47 NW14      30.23R
Wash Dulles    CLEAR     53  36  52 NW8       30.24R
Baltimore      CLEAR     51  38  60 NW5       30.21R
Philadelphia   CLEAR     52  34  50 N9        30.21R
Newark         PTCLDY    51  34  52 N10G21    30.20R
Laguardia      PTCLDY    52  35  52 N17       30.19R
J F K          PTCLDY    51  33  50 N15       30.19R
Boston         CLOUDY    48  35  60 NW15G24   30.13R
Pittsburg      CLEAR     48  34  58 N6        30.29R
Akron          CLEAR     45  34  65 CALM      30.30R
Cleveland      CLEAR     43  38  82 S7        30.31R
Cincinnati     CLEAR     47  40  76 CALM      30.31R
Columbus       CLEAR     44  40  86 CALM      30.31R
Detroit        PTCLDY    47  41  80 S3        30.26F
Chicago O`Hare CLEAR     54  37  52 SW6       30.21S
Minneapolis    PTCLDY    61  37  41 SW9       29.97F
Indianapolis   CLEAR     49  37  63 SW6       30.30S
Toronto Canada CLEAR     43  30  61 VRB2      30.25S

$$




USA.gov is the U.S. government's official web portal to all federal, state and local government web resources and services.